Regional Weather Roundup
Issued by NWS

Home | Current Version | Previous Version | Text Only | Print | Product List | Glossary Off
Versions: 1 2 3 4 5 6 7 8 9 10 11 12 13 14 15 16 17 18 19 20 21 22 23 24 25 26 27 28 29 30 31 32 33 34 35 36 37 38 39 40 41 42 43 44 45 46 47 48 49 50

725
ASUS43 KFSD 280410
RWRSD

WEATHER ROUNDUP FOR SOUTH DAKOTA
NATIONAL WEATHER SERVICE SIOUX FALLS SD
1100 PM CDT TUE SEP 27 2016

NOTE: "FAIR" INDICATES FEW OR NO CLOUDS BELOW 12,000 FEET WITH NO
SIGNIFICANT WEATHER AND/OR OBSTRUCTIONS TO VISIBILITY.


SDZ001>005-009-010-012>017-280500-
NORTHWEST AND NORTH CENTRAL SOUTH DAKOTA

CITY           SKY/WX    TMP DP  RH WIND       PRES   REMARKS
BUFFALO          N/A     57  47  69 W7        29.99R
FAITH            N/A     60  43  53 E5        30.03R
MOBRIDGE       CLEAR     59  41  51 E6        29.98R
$$

SDZ012>016-024>037-041>051-057-063-072>074-280500-
SOUTHWEST AND SOUTH CENTRAL SOUTH DAKOTA

CITY           SKY/WX    TMP DP  RH WIND       PRES   REMARKS
RAPID CTY ARPT CLEAR     62  41  46 N12       30.07R
PIERRE         CLEAR     56  42  59 E9        29.97R
CUSTER         CLEAR     55  36  48 NW5       30.20R
ELLSWORTH AFB  CLEAR     64  42  44 NW12      30.06R
PHILIP         CLEAR     52  42  69 W3        30.00R
PINE RIDGE     CLEAR     51  42  71 W3        30.06R
WINNER         FAIR      61  43  51 E5        29.99R
$$

SDZ004>011-016>023-039-040-280500-
NORTHEAST SOUTH DAKOTA

CITY           SKY/WX    TMP DP  RH WIND       PRES   REMARKS
ABERDEEN       CLOUDY    47  33  58 NE7       29.99R
WATERTOWN      CLEAR     43  37  79 N7        29.97R
BROOKINGS      CLEAR     47  36  65 NE5       29.95R
SISSETON         N/A     45  41  86 N7        29.98R
$$

SDZ017-020-022-023-036>040-048>070-280500-
SOUTHEAST SOUTH DAKOTA

CITY           SKY/WX    TMP DP  RH WIND       PRES   REMARKS
SIOUX FALLS    CLEAR     54  37  52 N9        29.92R
HURON          CLEAR     50  39  66 N6        29.96R
CHAMBERLAIN    CLEAR     62  43  51 NE6       29.97S
MITCHELL       CLEAR     51  41  68 NW7       29.95R
YANKTON        CLEAR     54  45  71 NW8       29.91R
$$

ABBREVIATIONS USED IN REMARKS
   TC - TEMPERATURE IN CELSIUS
  WCI - WIND CHILL INDEX
   HX - HEAT INDEX
  VSB - VISIBILITY





USA.gov is the U.S. government's official web portal to all federal, state and local government web resources and services.